Flag for U.S.A. Weather past 2 weeks in Flagstaff, Arizona, U.S.A.

Now
72 °F

Passing clouds.


Feels Like: 77 °F
Forecast: 49 / 71 °F
Wind: 8 mph from East

Location: Flagstaff Pulliam Airport

Current Time: Sep 18, 2014 at 1:46:22 PM

Latest Report: Sep 18, 2014 at 12:57 PM


Visibility: 10 mi

Pressure: 29.85 "Hg

Humidity: 44%

Dew point: 49 °F

Location of FlagstaffLocation

Historic Weather in Flagstaff — Graph

°F

Flagstaff temperature yesterday

Maximum temperature yesterday: 67 °F (at 3:57 PM)
Minimum temperature yesterday: 51 °F (at 11:57 PM)
Average temperature yesterday: 58 °F

Past Weeks' High & Low Weather Summary

 TemperatureHumidityPressure
High79 °F (Sep 3, 1:57 PM)97% (Sep 8, 6:57 AM)30.35 "Hg (Sep 8, 6:57 AM)
Low39 °F (Sep 11, 5:57 AM)16% (Sep 3, 11:57 AM)29.81 "Hg (Sep 4, 1:57 AM)
Average60 °F68%29.99 "Hg
* Reported Sep 3 11:57 AM — Sep 18 11:57 AM, Flagstaff, Weather by CustomWeather, © 2014

Note: Actual official high and low records may vary slightly from our data, if they occured in-between our weather recording intervals... More about our weather records

Advertising

Flagstaff weather history for previous 24 hours

 ConditionsComfort  
Time TempWeatherWind HumidityBarometerVisibility
11:57 AM
Sep 18
71 °FPassing clouds.6 mph47%29.87 "Hg10 mi
10:57 AM69 °FPassing clouds.7 mph51%29.88 "Hg10 mi
9:57 AM67 °FPassing clouds.6 mph61%29.89 "Hg10 mi
8:57 AM64 °FSunny.7 mph70%29.90 "Hg10 mi
7:57 AM58 °FSunny.No wind81%29.91 "Hg10 mi
6:57 AM49 °FSunny.No wind93%29.92 "Hg10 mi
5:57 AM47 °FClear.No wind90%29.90 "Hg10 mi
4:57 AM48 °FClear.No wind89%29.88 "Hg10 mi
3:57 AM48 °FClear.No wind93%29.88 "Hg10 mi
2:57 AM49 °FClear.No wind93%29.89 "Hg10 mi
1:57 AM49 °FClear.No wind93%29.91 "Hg10 mi
12:57 AM50 °FClear.No wind89%29.93 "Hg10 mi
11:57 PM
Sep 17
51 °FClear.No wind89%29.93 "Hg10 mi
10:57 PM52 °FClear.No wind93%29.93 "Hg10 mi
9:57 PM54 °FClear.No wind93%29.94 "Hg10 mi
8:57 PM55 °FPassing clouds.3 mph93%29.95 "Hg10 mi
7:57 PM57 °FPartly cloudy.No wind90%29.94 "Hg10 mi
6:57 PM60 °FClear.No wind83%29.91 "Hg10 mi
5:57 PM64 °FCloudy.3 mph73%29.90 "Hg10 mi
4:57 PM65 °FPassing clouds.7 mph68%29.88 "Hg10 mi
3:57 PM67 °FPartly sunny.9 mph61%29.88 "Hg10 mi
2:57 PM64 °FScattered clouds.6 mph75%29.90 "Hg10 mi
1:57 PM62 °FMostly cloudy.9 mph80%29.94 "Hg10 mi
Weather by CustomWeather, © 2014

See weather overviewHow to use our weather pages